Regional Weather Roundup
Issued by NWS

Home | Current Version | Previous Version | Graphics & Text | Print | Product List | Glossary On
Versions: 1 2 3 4 5 6 7 8 9 10 11 12 13 14 15 16 17 18 19 20 21 22 23 24 25 26 27 28 29 30 31 32 33 34 35 36 37 38 39 40 41 42 43 44 45 46 47 48 49 50
000
ASUS43 KLSX 260207
RWRMO

WEATHER SUMMARY FOR MISSOURI
NATIONAL WEATHER SERVICE SPRINGFIELD MO
900 PM CDT SAT APR 25 2015

NOTE: "FAIR" INDICATES FEW OR NO CLOUDS BELOW 12,000 FEET WITH NO
       SIGNIFICANT WEATHER AND/OR OBSTRUCTIONS TO VISIBILITY.
       CURRENT SKY AND/OR WEATHER CONDITIONS ARE NOT AVAILABLE FOR
       CHILLICOTHE AND FARMINGTON.

MOZ001>031-035>038-043-044-053-054-260300-
...NORTHERN AND WESTERN MISSOURI...

CITY           SKY/WX    TMP DP  RH WIND       PRES   REMARKS
KANSAS CTY INT CLOUDY    48  48 100 N9        29.76R FOG
KANSAS C DTWN  CLOUDY    51  47  86 N9        29.76R
LEE`S SUMMIT   CLOUDY    50  47  89 N9        29.76R
ST JOSEPH      CLOUDY    49  47  93 N12       29.79R FOG
CHILLICOTHE      N/A     51  47  86 N12       29.78R
KIRKSVILLE     CLOUDY    48  46  93 NE20      29.76R

$$
MOZ066>068-077>081-088>096-101>105-260300-
...SOUTHWEST MISSOURI...

CITY           SKY/WX    TMP DP  RH WIND       PRES   REMARKS
SPRINGFIELD    MOCLDY    60  54  80 N17G26    29.67R
JOPLIN         CLEAR     61  55  81 N10       29.69R

$$
MOZ032>034-039>042-045>050-055>058-069>072-260300-
...CENTRAL MISSOURI...

CITY           SKY/WX    TMP DP  RH WIND       PRES   REMARKS
COLUMBIA       CLOUDY    53  51  93 N17G24    29.69R
JEFFERSON CITY CLOUDY    57  54  89 N9        29.67R
ROLLA          CLOUDY    58  57  97 N10G20    29.63R
SEDALIA        LGT RAIN  54  51  90 N12       29.72R FOG
WHITEMAN AFB   CLOUDY    52  50  93 N13       29.71R FOG
WARRENSBURG    CLOUDY    50  46  87 N8        29.74R
OSAGE BEACH    CLOUDY    57  52  82 NW6       29.67R

$$
MOZ051-052-059>065-260300-
...EAST CENTRAL MISSOURI...

CITY           SKY/WX    TMP DP  RH WIND       PRES   REMARKS
ST LOUIS INTL  CLOUDY    56  51  84 NE14G21   29.66R
SPIRIT OF STL  LGT RAIN  55  51  86 NE7G18    29.66R
ST CHARLES     CLOUDY    53  50  89 NE17      29.66R

$$
MOZ072>076-082>087-097>100-106>115-260300-
...SOUTH CENTRAL AND SOUTHEAST MISSOURI...

CITY           SKY/WX    TMP DP  RH WIND       PRES   REMARKS
CAPE GIRARDEAU CLOUDY    65  58  78 N7        29.58R
FARMINGTON     CLOUDY    61  55  82 NW6       29.64R
POPLAR BLUFF   CLOUDY    72  52  49 N8        29.56R
WEST PLAINS    CLOUDY    68  51  54 W5        29.62R

$$


USA.gov is the U.S. government's official web portal to all federal, state and local government web resources and services.